Wind_Speed
14 14 13 12 14 12 9 7 6 5 5 5 4 4 4 3 4 3 4 3 4 4 4 5 5 4 4 5 5 5 5 5 5 5 5 5 5 6 7 6 5 4 4 5 5 4 5 5 5
13 12 13 14 13 9 7 6 6 5 5 5 4 4 4 4 4 4 4 4 4 4 4 4 4 4 4 4 5 5 5 5 4 4 4 5 5 5 6 6 5 4 4 4 4 4 5 5 5
12 12 14 13 10 8 7 6 6 6 5 5 4 4 4 5 5 5 4 4 4 4 3 3 3 3 3 4 5 4 4 4 4 4 4 4 5 4 4 5 5 4 4 4 4 4 4 4 5
12 15 15 11 8 8 7 7 6 6 6 6 6 4 5 5 5 5 4 4 4 4 3 3 3 3 3 3 3 3 3 3 3 3 4 4 4 4 4 4 4 4 4 4 4 4 5 5 5
15 16 13 10 8 8 8 7 7 6 6 6 6 6 5 5 5 5 4 4 4 4 4 3 2 2 2 2 2 2 2 2 3 3 4 4 4 3 3 3 4 5 5 5 5 5 5 5 5
14 14 12 10 9 8 7 8 7 7 7 6 6 6 6 6 6 5 5 4 4 4 3 3 3 2 2 1 1 1 1 2 2 3 3 4 4 3 3 3 4 4 5 5 5 5 5 6 6
12 12 9 8 8 7 7 7 7 8 8 7 7 7 7 7 7 6 6 5 4 4 3 3 2 2 1 1 0 0 1 2 2 3 3 4 4 4 4 4 4 5 5 6 6 6 6 6 6
10 10 7 6 7 6 7 7 7 8 8 8 7 7 7 7 7 7 7 6 5 4 3 3 2 2 1 1 1 1 2 2 3 3 4 4 4 4 5 5 5 5 6 6 6 6 6 7 6
8 7 7 5 6 6 7 8 8 9 8 8 8 8 8 8 8 7 7 7 6 5 4 3 3 3 3 2 2 2 3 3 3 3 3 4 4 5 5 5 5 5 6 7 7 7 8 8 8
5 6 6 5 5 5 7 7 8 8 8 7 7 7 8 8 8 8 8 8 7 6 6 4 3 3 3 3 3 3 3 4 4 4 4 4 4 5 5 5 6 6 6 7 8 8 9 10 10
4 5 5 5 5 6 7 8 8 7 8 8 8 7 7 8 8 8 8 9 8 7 6 5 4 4 4 4 5 4 3 4 4 4 4 4 4 5 5 6 7 7 7 7 8 9 9 10 11
3 4 5 6 7 7 7 8 9 9 9 9 9 9 8 8 8 8 8 8 8 8 7 5 5 6 5 5 5 6 5 5 5 5 5 5 5 5 5 6 7 7 7 8 8 9 9 10 10
4 5 6 7 8 8 8 8 8 9 11 10 9 9 8 8 8 9 9 9 8 8 7 7 6 6 6 6 6 6 6 6 6 6 6 6 6 7 7 7 7 7 8 8 9 10 10 10 10
4 4 4 6 7 7 8 8 8 9 11 10 9 9 9 9 8 9 9 9 9 8 8 7 7 7 7 6 7 7 6 6 6 6 7 7 7 8 8 8 8 8 9 9 9 9 10 10 11
2 2 5 5 7 8 8 7 8 9 10 10 10 9 9 8 8 9 9 10 10 9 8 8 7 8 8 7 7 7 7 6 6 7 8 8 8 8 8 9 9 10 10 9 9 10 10 11 11
1 4 7 7 7 7 8 9 9 10 11 10 10 9 9 9 9 9 10 10 10 10 9 8 8 8 8 8 8 7 7 7 7 8 8 8 8 9 9 9 10 10 10 10 11 11 12 12 12
0 4 6 7 7 6 7 9 9 9 10 10 10 10 10 9 9 9 9 10 10 9 9 8 8 8 8 8 9 9 8 8 9 9 9 9 10 10 10 10 10 10 10 11 11 11 12 12 13
3 3 4 7 7 7 7 9 10 11 11 11 10 11 10 10 9 9 9 10 9 9 9 8 8 8 9 9 9 10 9 9 9 10 10 10 10 10 10 10 11 11 11 11 11 11 11 12 13
1 4 5 6 7 7 7 8 10 11 12 12 11 11 10 10 9 9 9 9 9 9 9 8 8 9 9 9 9 10 10 10 11 11 10 10 10 10 10 10 11 11 11 11 11 11 11 12 13
5 6 7 6 6 6 7 8 10 11 12 12 11 10 10 10 9 9 8 9 9 9 10 9 9 9 9 9 9 10 11 11 11 11 10 10 10 11 11 11 11 11 11 11 11 11 11 11 13
8 7 7 7 8 7 9 10 10 11 11 12 12 10 9 10 9 8 8 9 9 10 9 9 9 10 10 10 11 11 11 11 11 12 12 12 12 12 12 12 12 11 10 10 11 11 12 12 12
9 7 6 8 9 8 9 12 10 10 12 11 12 10 9 9 10 10 9 10 10 10 9 9 10 10 11 11 12 11 11 12 13 13 12 12 12 12 12 12 11 10 10 11 11 12 12 13 13
9 8 8 9 10 7 7 11 10 10 11 11 12 12 9 10 11 11 11 11 12 11 10 9 10 11 11 12 12 12 12 13 14 13 13 13 13 13 13 12 11 11 11 11 12 12 13 13 14
10 9 9 10 11 9 8 12 11 11 10 11 12 12 11 10 12 12 11 11 12 11 11 11 11 12 12 12 12 13 13 13 14 13 13 13 14 14 14 13 12 13 12 12 13 13 14 15 15
10 9 12 11 10 9 9 12 11 10 12 12 12 12 12 11 11 12 12 12 11 11 11 12 12 12 13 13 13 13 14 14 14 14 14 14 14 14 14 14 14 14 13 13 14 15 16 16 17
11 12 13 13 11 10 11 14 13 9 11 12 13 12 13 12 11 11 11 12 12 12 12 12 12 13 13 13 13 14 14 15 15 14 15 15 15 15 15 15 15 15 14 14 15 16 17 17 18
14 13 12 14 13 13 13 14 14 13 12 12 11 10 12 12 12 11 12 12 12 12 12 12 12 13 13 14 14 14 15 15 15 15 15 15 15 15 15 15 15 16 15 16 16 16 17 17 18
14 13 13 12 14 15 14 13 13 14 14 13 12 10 11 13 13 12 12 12 13 13 13 12 12 13 14 14 15 15 15 16 16 15 16 16 16 16 16 16 16 16 16 17 17 17 17 18 18
14 14 14 14 14 15 16 15 15 15 16 15 13 11 12 13 13 14 13 13 13 13 13 13 14 14 15 16 16 16 16 17 16 15 15 16 16 16 17 17 17 17 17 18 18 18 18 18 18
16 16 15 16 17 16 18 18 15 16 16 16 15 12 13 14 13 13 14 15 14 14 13 14 15 15 16 16 17 17 17 17 17 16 16 16 16 17 17 17 17 18 18 18 19 19 20 19 19
Wind_Direction
81 80 78 74 64 59 52 45 38 43 49 51 52 55 54 49 50 54 48 59 68 82 85 96 95 105 119 126 128 135 140 143 147 153 161 167 172 170 170 171 166 169 175 180 185 186 183 176 169
82 83 76 66 58 46 43 40 46 50 51 48 43 42 49 54 54 52 50 53 72 80 79 101 104 122 127 132 131 132 139 143 148 154 162 171 171 171 180 182 179 175 178 188 190 188 186 184 182
85 81 71 62 53 42 29 32 41 44 40 38 41 46 52 54 54 53 55 52 62 74 82 98 100 103 116 131 135 136 136 142 144 147 159 171 175 174 181 184 184 183 184 188 189 187 192 193 192
84 78 69 63 48 43 27 25 30 37 40 35 38 48 53 49 50 48 49 52 61 67 68 77 92 74 98 117 125 136 130 140 148 157 162 166 169 176 183 182 192 193 190 194 202 202 205 208 202
81 79 70 60 50 40 28 29 34 30 34 36 39 41 43 43 42 45 43 55 63 61 58 63 74 68 82 111 130 147 162 163 172 174 180 183 183 187 193 199 198 198 203 208 212 216 214 217 215
83 77 68 50 44 43 30 31 36 33 30 32 38 41 40 41 40 40 42 50 55 62 62 53 60 67 74 70 101 158 203 206 208 209 206 207 206 210 214 214 210 209 213 216 222 227 227 226 225
81 86 74 49 38 39 31 30 30 35 28 35 37 44 39 37 37 38 43 43 44 50 43 42 47 52 56 33 309 245 262 261 252 244 235 227 225 227 231 225 223 222 225 226 228 231 233 229 235
73 79 75 54 36 32 37 28 26 26 27 34 30 31 34 34 34 35 37 36 32 33 30 31 27 15 13 8 328 303 291 280 268 265 264 254 245 238 238 231 229 232 236 237 234 233 238 235 240
76 80 68 54 37 30 26 22 20 22 25 30 31 30 30 32 34 36 34 33 30 24 16 14 9 0 352 347 324 302 300 295 283 273 271 261 254 252 253 243 241 242 245 246 244 243 242 243 245
53 70 59 35 32 22 21 24 25 18 25 27 26 29 32 33 34 35 35 32 28 23 16 10 10 358 348 353 345 319 304 303 298 285 284 274 261 257 262 257 256 258 258 255 255 253 249 249 249
70 63 61 44 31 21 19 23 27 21 26 30 24 26 27 30 30 30 30 31 27 21 16 19 15 4 359 4 357 346 326 323 317 306 303 295 283 273 267 263 262 262 263 262 259 259 257 253 255
68 59 44 42 37 31 24 25 28 23 18 24 26 23 23 27 28 29 26 25 22 16 11 14 14 7 1 356 351 342 330 325 317 311 306 300 298 296 288 280 275 269 266 262 260 259 259 259 261
64 50 36 27 29 24 24 28 25 22 17 15 14 19 18 17 24 25 20 17 14 10 7 0 1 357 353 345 342 339 335 333 324 311 303 297 300 302 298 290 285 282 281 278 272 264 261 262 264
79 54 34 30 19 11 3 18 15 8 8 7 7 10 12 8 8 12 14 10 7 6 8 3 356 353 349 344 342 342 335 330 326 317 314 308 304 302 300 297 291 289 286 284 277 270 265 263 263
104 12 29 30 14 5 356 7 13 5 5 5 5 7 6 4 4 4 4 4 359 358 3 357 352 351 347 346 343 341 337 329 327 320 316 314 311 307 303 298 294 290 287 283 280 274 268 265 265
309 12 14 14 13 356 353 2 6 359 1 359 360 1 2 2 -0 360 360 359 358 355 354 352 350 348 344 347 347 344 343 338 331 325 322 315 311 307 303 300 298 293 290 287 283 278 272 270 269
100 19 355 349 355 358 354 356 0 355 353 353 351 352 356 357 356 355 355 355 355 356 355 354 352 349 348 351 348 351 346 338 333 329 326 320 316 312 306 303 302 300 294 290 287 282 277 274 272
27 343 324 330 349 348 348 351 354 351 348 350 346 341 345 350 352 349 350 352 352 351 352 353 352 351 350 351 350 349 344 339 333 329 325 321 319 315 308 304 300 298 296 293 291 284 278 276 271
344 285 307 327 334 333 337 339 340 343 342 340 342 340 341 347 352 349 349 351 351 352 350 348 347 347 346 344 342 343 343 340 337 333 329 326 323 320 315 310 301 296 294 292 293 291 282 279 274
261 279 301 302 319 319 315 312 327 337 334 334 338 336 335 339 343 346 347 347 348 348 350 350 348 344 344 343 342 344 344 344 343 341 334 329 326 323 318 314 308 301 297 294 293 290 287 285 283
254 265 284 299 299 302 305 309 315 325 330 332 331 330 329 337 339 340 342 346 347 345 345 348 350 347 344 342 342 344 345 344 344 343 340 334 327 323 319 317 313 305 301 296 293 291 290 289 288
257 264 278 287 292 299 300 295 315 321 330 327 322 322 329 336 338 335 338 343 342 341 342 342 344 344 344 343 342 343 343 341 340 338 336 333 334 331 324 320 316 305 300 297 296 297 296 293 290
254 255 264 272 273 284 289 295 310 319 311 318 321 322 330 331 329 332 334 338 336 334 335 336 338 338 338 339 338 339 340 338 338 337 335 333 333 332 329 326 321 315 307 300 300 301 297 294 290
244 254 268 272 276 284 295 292 302 310 307 322 326 324 324 320 320 324 330 331 331 331 332 333 335 334 334 333 333 334 334 336 337 337 333 331 329 328 328 327 322 317 312 307 304 303 299 297 294
252 269 276 278 280 281 287 287 289 305 311 316 315 312 312 313 316 320 325 329 333 334 332 334 333 333 334 334 334 334 333 334 334 335 334 330 329 329 328 326 322 316 311 307 306 305 303 298 297
251 257 268 277 284 282 283 288 292 300 307 310 305 305 307 310 311 317 323 325 331 333 331 331 331 333 334 334 334 335 334 333 333 332 331 330 328 329 329 328 323 317 313 309 305 303 304 303 300
247 252 266 277 286 288 285 288 296 299 307 310 308 305 308 310 310 315 319 321 324 327 329 330 330 331 333 334 333 333 333 331 330 330 330 329 328 329 329 328 325 320 316 311 309 309 308 306 303
242 247 258 263 277 281 284 285 291 296 300 300 298 303 306 308 308 307 310 314 319 322 324 326 328 328 329 330 332 331 331 332 329 329 329 327 327 328 328 326 324 321 318 313 311 313 310 308 306
246 247 254 263 270 282 289 288 288 292 296 292 291 297 298 305 308 307 310 311 314 316 316 319 322 324 325 328 330 329 329 329 329 327 328 327 326 326 327 327 325 322 319 316 314 314 312 310 307
242 244 250 264 272 276 283 286 286 289 291 293 292 292 297 300 304 308 308 308 311 312 313 316 318 319 320 322 325 326 327 326 325 324 324 323 323 323 323 323 324 322 320 318 316 316 314 313 310
Height
5892 5892 5892 5891 5890 5891 5891 5890 5889 5888 5888 5887 5886 5885 5884 5884 5884 5886 5883 5882 5882 5881 5881 5881 5881 5881 5881 5882 5882 5882 5883 5884 5884 5885 5885 5886 5887 5887 5888 5889 5890 5891 5891 5892 5893 5893 5894 5895 5895
5894 5894 5894 5892 5892 5893 5893 5891 5890 5890 5889 5888 5887 5887 5886 5885 5885 5884 5883 5883 5883 5882 5882 5882 5882 5883 5883 5883 5883 5884 5884 5885 5885 5886 5886 5887 5887 5888 5889 5890 5891 5891 5892 5892 5893 5894 5894 5895 5896
5896 5896 5895 5895 5896 5896 5895 5893 5892 5891 5891 5890 5889 5888 5887 5886 5886 5885 5884 5884 5884 5884 5884 5883 5884 5884 5884 5884 5885 5885 5885 5885 5886 5886 5887 5887 5888 5888 5889 5890 5891 5891 5892 5893 5893 5894 5894 5895 5896
5898 5897 5897 5900 5899 5898 5896 5895 5894 5893 5892 5891 5890 5889 5888 5888 5887 5886 5886 5885 5885 5885 5884 5884 5885 5885 5885 5885 5885 5886 5886 5886 5886 5887 5887 5887 5888 5889 5890 5890 5891 5891 5892 5893 5893 5894 5894 5895 5895
5898 5898 5900 5901 5900 5899 5898 5897 5896 5895 5894 5893 5892 5890 5889 5889 5888 5887 5887 5886 5886 5885 5885 5885 5886 5886 5886 5886 5886 5886 5886 5886 5887 5887 5888 5888 5888 5889 5890 5890 5890 5891 5892 5892 5893 5893 5894 5894 5895
5900 5901 5904 5903 5902 5902 5901 5899 5897 5896 5896 5894 5893 5892 5891 5890 5889 5889 5888 5887 5887 5887 5886 5886 5886 5886 5886 5886 5886 5887 5887 5887 5887 5887 5888 5888 5888 5889 5889 5890 5890 5891 5891 5892 5893 5893 5894 5894 5895
5902 5903 5904 5905 5904 5904 5902 5901 5899 5898 5897 5896 5895 5893 5892 5892 5891 5890 5889 5888 5888 5887 5887 5887 5887 5887 5887 5887 5887 5887 5887 5887 5887 5887 5887 5888 5888 5888 5889 5889 5890 5890 5891 5891 5892 5892 5893 5894 5894
5905 5907 5906 5907 5906 5906 5904 5903 5902 5900 5899 5898 5897 5895 5894 5894 5893 5891 5890 5889 5889 5888 5888 5887 5887 5887 5887 5887 5887 5887 5887 5887 5887 5887 5887 5887 5888 5888 5888 5888 5889 5889 5890 5890 5891 5892 5892 5893 5893
5908 5910 5909 5909 5908 5907 5906 5905 5904 5902 5900 5899 5898 5897 5896 5895 5894 5893 5892 5891 5890 5889 5888 5888 5888 5888 5888 5888 5887 5887 5887 5887 5887 5887 5887 5887 5887 5887 5887 5888 5888 5888 5889 5889 5890 5890 5891 5892 5892
5911 5911 5911 5911 5910 5909 5908 5907 5905 5904 5902 5901 5900 5899 5897 5896 5895 5894 5893 5892 5891 5890 5889 5888 5888 5888 5888 5888 5887 5887 5887 5887 5887 5886 5886 5886 5886 5887 5887 5887 5887 5887 5888 5888 5888 5889 5889 5890 5891
5913 5913 5913 5913 5911 5911 5909 5908 5906 5904 5903 5902 5901 5900 5898 5897 5896 5895 5894 5893 5892 5891 5890 5889 5889 5888 5888 5888 5888 5887 5887 5887 5886 5886 5886 5886 5886 5886 5886 5886 5886 5886 5886 5887 5887 5887 5888 5888 5889
5915 5915 5914 5914 5912 5912 5911 5909 5908 5906 5905 5903 5902 5901 5900 5899 5898 5896 5895 5894 5893 5892 5891 5890 5890 5889 5888 5888 5888 5887 5887 5886 5886 5886 5885 5885 5885 5885 5885 5885 5885 5885 5885 5885 5885 5886 5886 5887 5887
5916 5916 5915 5914 5913 5913 5912 5911 5910 5908 5907 5905 5903 5902 5901 5900 5899 5898 5897 5895 5894 5893 5892 5891 5890 5890 5889 5888 5887 5887 5886 5886 5885 5885 5885 5885 5884 5884 5884 5884 5884 5883 5883 5883 5883 5884 5884 5885 5885
5917 5917 5916 5916 5915 5914 5913 5912 5910 5909 5908 5906 5905 5903 5902 5901 5900 5899 5898 5896 5895 5894 5893 5892 5891 5890 5889 5888 5887 5886 5886 5885 5885 5884 5884 5883 5883 5882 5882 5882 5882 5881 5881 5881 5881 5881 5882 5882 5883
5918 5917 5916 5916 5915 5915 5914 5912 5911 5910 5909 5907 5906 5904 5903 5902 5901 5899 5898 5897 5896 5894 5893 5892 5891 5890 5889 5888 5887 5886 5885 5884 5884 5883 5882 5882 5881 5881 5881 5880 5880 5879 5879 5879 5879 5879 5879 5880 5880
5917 5918 5917 5917 5916 5916 5917 5913 5912 5911 5910 5908 5907 5905 5904 5903 5901 5900 5899 5898 5896 5895 5893 5892 5891 5890 5889 5888 5887 5886 5885 5884 5883 5883 5882 5881 5880 5879 5879 5878 5878 5877 5877 5877 5876 5877 5877 5877 5877
5917 5918 5919 5918 5917 5916 5916 5914 5913 5911 5910 5909 5907 5906 5904 5903 5902 5901 5899 5898 5897 5896 5894 5893 5891 5890 5889 5888 5887 5886 5885 5884 5883 5882 5881 5880 5879 5878 5877 5876 5875 5875 5874 5874 5874 5874 5874 5874 5874
5917 5919 5919 5919 5918 5917 5916 5914 5913 5912 5910 5909 5908 5906 5904 5903 5902 5901 5899 5898 5897 5896 5894 5893 5892 5890 5889 5888 5887 5886 5885 5883 5882 5881 5880 5878 5877 5876 5875 5874 5873 5873 5872 5872 5871 5871 5871 5871 5871
5920 5921 5920 5920 5919 5918 5917 5915 5914 5912 5911 5909 5908 5906 5904 5903 5902 5900 5899 5898 5897 5896 5894 5893 5892 5891 5889 5888 5887 5886 5884 5883 5881 5880 5878 5877 5876 5874 5873 5872 5871 5870 5870 5869 5869 5868 5868 5868 5868
5921 5920 5920 5919 5919 5918 5916 5915 5913 5911 5910 5909 5907 5906 5904 5903 5901 5900 5899 5898 5897 5895 5894 5893 5892 5890 5889 5888 5886 5885 5884 5882 5881 5879 5877 5875 5874 5872 5871 5870 5869 5868 5867 5867 5866 5866 5866 5865 5865
5920 5919 5920 5919 5918 5917 5916 5914 5912 5911 5909 5907 5906 5905 5903 5902 5901 5899 5898 5897 5896 5895 5894 5893 5891 5890 5889 5887 5886 5884 5883 5881 5880 5878 5876 5874 5873 5871 5869 5868 5866 5865 5864 5864 5864 5864 5863 5863 5862
5919 5919 5919 5918 5917 5916 5915 5912 5910 5908 5907 5906 5905 5904 5902 5901 5900 5899 5897 5896 5895 5894 5893 5892 5891 5889 5888 5887 5885 5884 5882 5880 5879 5877 5875 5873 5871 5869 5867 5865 5864 5863 5862 5861 5861 5861 5860 5859 5859
5917 5917 5917 5916 5914 5913 5913 5911 5910 5908 5906 5905 5904 5903 5901 5901 5899 5898 5896 5895 5894 5893 5892 5891 5890 5889 5887 5886 5884 5883 5881 5879 5877 5875 5874 5872 5870 5868 5866 5864 5862 5860 5859 5859 5858 5858 5857 5856 5855
5915 5915 5914 5913 5912 5912 5913 5911 5909 5908 5905 5904 5903 5901 5900 5900 5899 5897 5896 5895 5893 5892 5891 5890 5889 5888 5886 5885 5883 5881 5880 5878 5876 5874 5872 5870 5868 5866 5864 5862 5860 5859 5858 5856 5856 5855 5853 5853 5852
5913 5914 5913 5911 5910 5911 5911 5909 5908 5907 5905 5904 5902 5900 5899 5898 5898 5896 5895 5893 5892 5891 5890 5889 5888 5886 5885 5883 5882 5880 5878 5876 5874 5872 5870 5868 5867 5864 5862 5860 5858 5857 5855 5854 5853 5851 5850 5849 5848
5911 5912 5912 5911 5909 5908 5908 5907 5904 5904 5904 5903 5901 5899 5898 5897 5896 5895 5894 5892 5891 5890 5888 5887 5886 5885 5883 5882 5880 5878 5876 5874 5872 5870 5868 5866 5864 5862 5860 5858 5856 5854 5852 5851 5849 5848 5847 5845 5844
5908 5908 5909 5909 5908 5907 5905 5904 5903 5901 5901 5901 5899 5898 5897 5895 5894 5893 5892 5891 5890 5888 5887 5886 5885 5883 5882 5880 5878 5876 5874 5872 5870 5868 5866 5864 5862 5860 5858 5856 5854 5852 5849 5848 5846 5844 5843 5841 5840
5906 5907 5907 5908 5907 5905 5904 5902 5900 5898 5898 5897 5896 5895 5894 5893 5892 5891 5890 5889 5888 5887 5885 5884 5883 5882 5880 5878 5876 5874 5872 5870 5868 5866 5864 5862 5860 5858 5856 5853 5851 5849 5846 5845 5843 5841 5839 5838 5836
5904 5905 5904 5905 5904 5903 5902 5902 5899 5897 5897 5895 5893 5892 5892 5891 5890 5889 5887 5887 5886 5885 5884 5882 5881 5880 5878 5876 5874 5872 5870 5868 5866 5864 5862 5860 5858 5856 5853 5851 5848 5846 5844 5842 5840 5838 5836 5834 5832
5899 5901 5903 5904 5902 5901 5899 5900 5896 5895 5893 5892 5890 5889 5889 5889 5888 5887 5886 5885 5884 5883 5882 5880 5879 5878 5876 5874 5872 5870 5868 5866 5864 5861 5859 5857 5855 5853 5851 5848 5845 5843 5841 5839 5836 5834 5832 5830 5828